Tracking 18987 objects as of 24-Feb-2018
HD Live streaming from Space Station
objects crossing your sky now

COSMOS 1305

Track COSMOS 1305 now!
10-day predictions
COSMOS 1305 is classified as:


NORAD ID: 12818
Int'l Code: 1981-088A
Perigee: 964.0 km
Apogee: 13,537.6 km
Inclination: 63.2 °
Period: 263.7 minutes
Semi major axis: 13621 km
RCS: 12.474 m2 (large)
Launch date: September 11, 1981
Source: Commonwealth of Independent States (former USSR) (CIS)
Launch site: PLESETSK MISSILE AND SPACE COMPLEX (PKMTR)
aabbcc
Your satellite tracking list
Your tracking list is empty




NASA's NSSDC Master Catalog

Two Line Element Set (TLE):
1 12818U 81088A   18055.28686896 -.00000017 +00000-0 +00000-0 0  9996
2 12818 063.2312 174.9406 4615241 211.7486 091.5634 05.46073700727008
Source of the keplerian elements: AFSPC